Wind_Gust
10 13 13 16 15 17 19 19 15 23 22 22 21 22 28 23 28 31 28 23 20 13 19 18 19 22 32 19 26 23 20 20 15 16 15 23 24 26 31 36 34 31 30 29 28 28 26 24 24 24 24 25 24 23 24 24 24 23 22 22 21 21 21 20 20 19 18 18 17 17 18 17 16 18 20 19 18 17 17 17 16 16 16 16 16 15 14 13 13 13 13 14 13 14 13 13 13
13 12 14 15 19 17 19 18 24 17 21 23 24 21 22 24 20 22 20 17 21 14 23 26 27 27 30 21 29 25 24 23 20 25 24 26 28 30 33 32 33 33 29 28 27 26 25 26 24 24 25 25 23 24 24 24 24 23 23 22 21 21 21 20 19 19 19 18 17 16 17 17 16 17 20 19 19 17 16 17 16 16 16 15 15 14 13 12 11 12 12 12 12 12 12 12 11
16 15 16 16 19 22 18 20 22 19 22 24 24 27 19 27 21 16 20 19 13 14 12 22 24 22 23 27 26 25 20 16 24 25 30 28 31 28 32 31 30 31 30 27 27 26 25 24 24 24 26 25 24 24 24 23 24 23 23 22 22 22 21 20 19 19 18 18 17 17 17 17 16 17 20 20 18 17 16 16 16 16 15 15 14 14 12 11 11 11 12 12 12 12 11 11 10
15 18 18 18 18 19 17 18 23 24 25 23 23 19 26 24 25 16 13 14 12 10 13 19 23 16 35 30 25 25 22 24 22 24 37 28 28 31 32 30 28 28 27 27 27 25 24 25 24 24 26 26 25 24 24 22 22 22 22 22 22 21 21 21 20 19 19 18 18 17 17 18 17 17 18 19 19 17 16 15 16 15 15 14 14 13 12 11 11 11 12 12 11 11 10 10 9
15 15 19 20 21 21 22 22 23 25 29 25 25 20 21 19 22 20 16 18 13 14 14 21 30 22 25 19 23 26 23 20 19 16 29 26 31 29 31 29 28 28 26 26 26 26 24 25 23 23 23 26 25 25 23 23 22 21 21 21 21 20 21 21 21 20 19 19 18 18 18 17 18 18 19 19 18 18 16 15 13 14 14 13 12 11 11 11 11 10 11 11 11 10 10 9 8
16 17 17 18 23 21 25 22 24 27 26 26 26 24 19 21 21 21 17 24 15 7 10 17 22 23 24 18 21 18 14 18 20 19 31 30 32 31 29 26 26 26 26 25 24 23 27 26 24 22 22 24 25 25 24 23 22 21 20 21 20 20 21 22 21 20 19 19 19 18 18 17 18 18 18 17 18 18 16 15 13 12 14 13 12 12 11 10 9 9 10 11 11 10 9 8 7
19 19 22 20 22 20 21 24 25 26 27 26 31 26 18 16 28 30 22 18 19 23 27 24 27 31 27 27 26 22 18 13 17 27 24 31 31 29 28 27 25 26 26 24 23 25 29 26 24 23 23 23 24 24 24 23 22 21 20 20 20 20 21 22 21 20 19 19 19 19 18 17 18 17 16 17 18 18 16 15 14 11 12 11 12 11 10 9 9 10 10 11 11 9 9 7 6
19 23 18 23 21 21 23 24 28 26 26 29 27 27 28 13 24 32 32 28 17 18 19 18 23 27 17 18 23 15 19 18 22 31 33 31 28 28 28 27 26 26 26 22 23 24 26 26 25 24 24 22 24 23 23 23 22 22 21 20 19 20 20 21 21 18 18 18 19 19 18 18 17 16 15 16 17 17 16 15 14 12 11 9 10 10 9 10 9 10 10 10 10 9 9 8 7
20 22 16 23 26 28 26 29 31 29 31 32 31 27 24 28 23 23 17 17 16 18 21 25 19 26 14 20 21 12 22 18 23 27 29 29 27 27 29 25 26 26 25 24 24 24 25 25 25 25 25 24 24 24 23 23 23 22 21 20 19 20 20 18 18 17 17 16 18 19 18 18 17 16 15 14 15 16 16 15 14 13 11 10 10 10 10 9 9 9 9 10 10 10 9 9 8
24 22 23 27 21 30 29 28 29 28 32 33 33 31 31 25 27 24 25 22 20 28 30 28 26 27 24 21 20 15 15 14 19 21 26 26 27 25 26 26 24 26 24 25 25 25 24 26 26 24 24 25 22 23 23 22 22 22 20 19 19 19 20 18 17 16 15 14 19 18 18 17 16 16 15 14 16 16 15 15 14 12 11 10 10 10 9 8 7 8 9 10 10 9 9 8 8
29 25 22 28 29 31 32 28 28 22 25 31 33 33 33 36 29 32 26 30 19 27 33 33 38 23 20 17 13 13 16 14 22 21 22 25 26 27 23 24 24 23 27 26 24 25 26 26 27 25 24 23 21 19 19 20 21 21 20 19 18 19 18 18 16 16 15 15 19 19 18 17 15 15 15 15 18 17 16 15 13 12 11 11 10 9 8 7 7 7 9 9 10 9 9 9 8
25 26 27 30 31 29 30 32 29 28 24 24 35 31 28 30 28 30 26 24 25 30 26 27 29 31 23 23 15 9 13 15 20 19 21 23 24 23 23 22 25 25 26 27 26 25 26 26 25 26 26 23 21 19 19 21 21 21 20 19 19 19 19 18 16 16 16 16 18 17 18 16 15 16 15 15 18 17 15 14 13 12 11 9 9 8 7 7 6 7 8 9 9 9 8 8 7
29 22 26 33 32 29 28 31 32 28 31 29 28 35 28 27 26 22 23 23 30 29 28 28 27 19 16 16 13 11 15 15 13 13 21 21 21 21 22 25 27 26 27 25 25 27 26 25 27 25 22 26 21 19 20 21 20 21 20 19 18 19 19 17 18 17 15 17 18 16 16 15 15 14 13 15 18 16 15 14 12 12 11 10 9 7 7 6 6 6 7 8 9 9 8 7 7
33 25 20 26 26 33 34 30 26 31 33 30 27 26 29 28 24 20 16 19 20 22 26 33 27 25 22 17 10 9 11 15 17 16 19 21 20 21 23 24 24 26 26 26 26 29 26 22 21 23 24 21 19 21 20 21 21 20 20 19 19 18 18 18 18 17 16 16 18 16 16 16 15 16 15 18 18 16 15 14 13 12 11 10 9 7 6 6 7 7 7 7 8 8 8 7 7
20 20 30 26 28 27 32 41 30 30 28 26 30 26 34 32 27 28 26 25 14 32 38 39 39 28 25 21 18 20 21 18 21 20 18 20 21 22 23 23 22 24 24 24 26 26 25 22 25 23 21 20 19 16 15 22 22 21 21 20 19 19 17 17 19 18 17 18 18 16 16 17 17 18 19 19 18 18 16 15 14 12 11 10 9 7 6 6 7 7 7 6 7 7 7 6 6
17 18 22 25 29 30 28 34 34 35 33 24 19 19 22 24 32 35 36 29 25 30 33 31 29 26 28 32 27 26 25 20 22 24 20 22 22 21 23 20 23 24 24 24 23 23 23 21 22 23 22 20 16 14 16 17 20 21 21 21 21 20 19 18 20 20 19 17 17 18 18 18 18 18 22 19 19 19 16 13 13 12 12 11 9 7 6 5 6 7 7 6 6 6 6 6 6
14 13 20 28 33 33 27 31 28 41 28 28 18 18 29 31 25 27 19 22 24 18 19 29 22 21 31 24 23 27 26 24 20 23 22 19 19 19 18 16 19 21 21 22 21 22 23 22 21 23 20 21 20 17 16 16 20 22 19 21 22 21 20 20 20 20 18 17 16 17 15 14 10 13 17 16 17 16 15 15 15 14 12 11 10 7 7 5 5 6 6 6 5 6 6 6 5
23 30 26 33 33 39 30 37 35 27 29 26 28 24 26 27 25 25 20 26 27 26 23 21 21 18 15 17 27 28 24 26 21 24 25 22 19 20 19 19 20 23 26 25 24 25 25 25 25 22 21 22 20 20 18 16 19 20 19 19 19 19 18 17 17 15 14 12 17 15 11 13 13 12 12 14 15 15 16 16 15 14 13 12 10 8 6 5 5 5 5 5 5 5 7 5 5
29 31 33 39 34 41 27 34 35 37 35 31 32 33 28 28 24 27 33 21 21 25 23 20 20 18 18 21 24 25 27 24 21 20 26 27 26 23 22 21 20 23 26 26 25 25 25 24 24 22 21 23 22 19 19 16 22 19 20 21 19 16 17 17 16 16 14 14 15 15 11 11 13 14 12 15 13 14 15 16 16 16 15 13 11 9 7 6 6 6 6 6 6 6 7 7 8
31 30 42 43 35 37 35 36 37 37 39 40 36 35 32 28 31 24 31 28 22 25 27 21 22 19 18 17 19 25 25 21 20 19 22 26 24 23 19 21 21 22 23 24 26 26 27 24 25 23 25 23 24 20 18 19 18 18 17 17 16 17 17 18 17 16 16 15 16 11 11 12 12 12 14 21 19 16 15 16 17 16 16 14 12 8 7 7 7 7 7 7 5 6 7 9 8
29 37 38 38 34 39 39 41 39 38 38 39 36 28 32 30 31 29 25 25 24 18 23 25 22 20 16 18 17 18 20 22 24 23 26 28 33 28 23 19 20 20 21 21 22 22 25 23 24 23 21 21 20 20 19 20 19 17 19 18 18 18 18 16 16 15 14 15 15 12 12 12 13 13 11 13 11 12 13 12 13 11 8 9 11 7 6 11 7 8 7 8 6 9 10 10 8
28 35 34 34 30 35 34 36 39 39 36 35 36 32 32 24 30 28 25 29 27 21 20 24 25 27 26 23 20 19 20 23 21 21 24 29 27 20 25 25 26 23 16 20 23 21 22 25 22 24 23 20 19 19 20 21 21 18 20 19 17 18 18 17 15 15 14 17 14 15 14 12 12 13 11 12 11 14 14 12 13 12 12 12 12 9 8 8 9 9 8 9 10 10 12 12 10
39 32 34 37 36 33 28 35 35 36 40 34 33 30 28 26 30 36 35 33 30 19 28 24 31 28 25 26 24 23 24 22 20 21 24 23 21 23 24 26 25 24 17 18 20 20 20 24 24 23 24 21 17 20 20 19 20 17 18 19 18 18 18 17 16 15 14 16 16 15 14 14 12 11 13 13 12 15 15 12 13 12 11 11 11 11 10 10 9 10 9 10 12 12 15 16 12
35 42 31 33 33 38 33 31 29 33 35 38 34 25 27 21 33 35 36 31 29 24 25 29 25 28 28 25 22 23 22 24 23 21 24 25 23 21 20 28 28 25 19 16 20 19 21 26 23 24 25 21 17 20 19 21 19 17 19 19 18 18 18 16 18 16 14 19 17 17 15 14 12 10 14 13 12 14 15 14 14 13 13 12 12 13 12 10 11 11 11 11 14 16 18 17 13
39 45 33 32 32 36 34 35 37 34 30 32 32 36 30 28 37 26 32 30 27 28 24 26 26 30 27 26 22 17 18 15 19 18 14 16 17 17 16 18 28 27 24 18 16 18 23 23 23 27 26 21 18 20 20 18 19 16 18 18 17 17 17 16 16 15 15 17 17 17 16 14 12 11 13 14 12 14 16 14 15 13 13 13 13 15 13 12 11 12 13 13 14 16 14 14 13
38 35 33 31 32 31 33 33 35 38 39 29 30 33 34 35 34 42 38 30 25 25 24 26 25 26 25 25 21 21 18 18 15 15 21 19 21 22 17 19 21 31 27 25 26 19 23 24 23 28 26 24 18 19 18 18 20 16 19 19 15 18 16 16 14 14 14 17 17 15 16 15 13 11 14 12 14 13 15 14 15 13 13 14 13 14 14 12 12 13 13 14 12 16 14 10 12
28 32 34 38 35 34 35 37 35 38 36 32 38 32 34 30 36 42 28 35 34 26 29 32 26 26 24 19 16 14 17 19 18 14 12 12 18 23 19 18 18 30 30 28 28 24 22 22 23 24 24 19 16 20 17 18 19 15 19 19 15 18 16 16 14 14 15 16 16 15 14 16 12 11 12 11 12 11 11 12 13 14 13 14 14 16 14 13 12 15 15 14 13 15 12 13 19
24 30 33 38 38 41 40 39 38 37 39 38 39 39 36 32 31 37 31 29 33 31 26 35 25 26 28 23 21 19 18 17 21 21 19 16 19 20 23 23 20 27 26 23 26 25 26 25 20 24 22 20 17 19 17 17 18 15 18 19 16 17 14 15 13 12 16 14 14 13 12 14 11 10 11 13 12 10 9 10 12 13 13 11 14 16 15 13 12 15 14 12 13 6 15 16 17
22 24 29 27 30 42 33 39 34 33 44 31 32 39 42 41 38 34 33 28 26 26 28 30 32 26 28 27 21 21 22 20 21 23 25 25 21 22 23 23 27 22 23 18 22 25 26 27 23 24 23 19 18 18 17 16 17 14 18 18 16 17 15 14 12 12 15 13 14 13 11 11 11 10 10 13 12 10 9 9 11 12 15 12 14 15 16 13 12 11 12 3 7 14 14 11 14
25 25 25 24 26 29 31 33 29 29 32 26 29 47 36 43 42 40 34 32 25 25 27 33 29 23 22 22 24 23 21 22 21 24 27 25 26 25 24 22 22 26 25 26 25 32 29 26 23 20 21 21 20 18 12 17 17 12 17 16 16 18 15 14 10 11 11 13 13 15 12 12 10 10 9 11 11 10 10 9 8 8 9 9 11 13 14 12 11 6 3 10 12 16 14 11 12
25 25 25 26 22 30 21 29 24 32 29 28 27 38 40 41 39 35 31 28 27 27 31 30 28 22 24 30 28 29 24 27 26 23 24 28 27 26 25 22 21 23 24 24 28 29 30 30 25 22 21 20 20 17 14 15 14 12 16 14 15 15 14 12 10 10 12 12 12 14 13 13 12 11 8 11 10 11 10 9 9 9 8 6 9 8 8 9 9 3 8 14 15 12 10 9 11
20 25 31 26 28 26 23 24 28 38 30 26 26 35 31 28 36 30 20 24 30 32 30 28 26 20 22 26 29 27 27 27 29 28 27 28 26 26 24 26 25 22 27 29 30 30 32 31 29 23 20 21 20 17 14 11 13 11 13 11 14 12 13 13 11 11 12 11 14 14 14 14 13 11 9 10 10 10 10 10 10 9 8 8 9 7 7 8 6 9 10 13 13 10 9 9 10
26 27 22 30 29 29 29 26 27 32 41 28 33 37 31 32 31 24 18 16 25 32 30 24 19 17 22 30 27 25 24 24 21 23 25 26 25 26 26 27 29 31 27 26 30 32 34 33 30 29 24 23 20 17 15 11 11 12 13 14 15 14 13 13 12 10 13 13 13 16 15 14 14 12 10 11 9 8 10 11 11 10 9 10 10 9 9 6 6 13 19 11 12 11 10 8 9
26 26 31 26 28 27 36 24 34 31 31 35 39 49 40 31 27 34 28 12 24 33 33 28 23 26 19 28 24 23 25 27 27 27 28 28 26 25 24 26 29 28 23 26 29 34 34 33 27 27 24 23 20 19 16 14 11 12 12 13 14 16 13 13 13 12 13 13 13 16 17 14 16 13 12 13 11 9 9 11 10 10 10 11 10 10 11 16 25 26 17 12 10 11 9 11 10
24 23 24 29 28 31 30 31 25 34 35 41 36 42 42 39 40 36 21 26 28 28 31 30 29 28 22 24 25 23 24 27 26 26 29 30 28 26 25 25 26 26 23 25 28 31 31 27 20 22 22 22 20 17 14 12 9 10 11 11 16 16 12 13 13 13 12 14 13 16 19 15 17 14 13 14 11 10 9 12 12 9 12 12 12 11 12 19 23 23 15 9 4 5 11 10 11
26 24 28 28 27 28 34 33 34 26 32 40 39 44 40 40 40 37 35 30 29 35 26 26 26 25 26 23 25 26 24 29 25 22 25 27 28 27 25 25 26 26 25 26 26 28 29 24 21 22 22 23 18 17 16 14 12 14 15 12 16 16 14 15 13 13 13 14 13 17 18 16 16 14 15 13 12 11 9 12 12 11 12 12 12 12 14 19 21 22 16 11 7 5 6 8 10
27 27 27 29 30 29 27 29 30 33 37 33 37 39 43 40 35 31 29 31 34 28 34 29 24 27 25 23 24 24 22 26 22 25 28 28 30 30 27 27 26 25 27 28 28 27 28 29 26 26 25 23 24 24 22 21 19 18 15 16 17 15 16 15 14 10 16 15 12 17 19 16 17 14 16 13 16 13 10 9 11 11 12 13 13 13 18 21 21 17 14 8 10 11 7 6 9
20 21 22 24 23 27 33 31 23 24 39 31 32 34 39 38 34 33 31 36 40 37 33 29 27 27 27 25 21 21 21 20 26 22 23 24 27 25 24 25 23 27 24 28 30 32 29 27 29 28 25 26 26 28 27 24 21 23 22 18 16 17 17 18 17 12 16 16 12 16 19 16 19 15 15 13 15 14 11 10 11 12 12 12 12 12 17 21 17 16 18 11 8 10 11 9 12
18 21 21 24 24 25 28 30 26 28 25 29 32 36 31 31 33 37 35 31 32 36 36 31 28 27 28 29 26 25 18 17 27 26 24 27 26 27 25 24 26 29 29 29 30 31 29 28 26 26 28 28 26 23 22 25 20 16 17 18 15 19 17 16 16 14 13 16 13 17 18 18 20 16 15 14 16 15 14 11 12 12 12 12 12 12 17 18 17 20 20 21 13 6 5 8 11
20 20 22 25 22 24 25 24 27 26 29 23 22 29 33 27 22 15 13 29 33 29 34 38 33 30 27 26 28 28 31 22 27 28 26 28 27 28 26 26 25 24 25 23 23 25 27 28 26 27 27 25 24 24 23 20 18 13 13 13 14 17 20 18 13 13 12 16 15 17 19 18 20 18 15 16 14 15 15 13 12 13 13 12 13 14 16 18 17 18 20 18 16 12 10 10 10
19 22 23 24 21 21 25 26 29 29 26 28 30 31 30 16 20 26 21 25 30 34 36 36 34 28 28 22 26 31 31 32 27 27 24 25 27 29 30 29 27 27 27 27 27 27 26 27 28 30 29 27 25 24 24 20 18 14 16 13 12 13 14 17 16 16 14 18 16 15 20 18 20 19 16 16 16 14 15 14 14 14 14 12 13 14 14 19 17 20 21 18 17 17 14 13 13
21 19 20 20 18 22 22 22 23 29 31 26 26 37 33 18 22 26 28 28 29 32 32 29 29 34 31 31 28 23 27 28 24 31 31 30 31 28 27 28 29 29 30 29 29 30 26 26 26 25 23 24 25 24 23 23 22 22 21 21 21 21 20 21 25 23 18 20 21 14 18 19 19 18 17 16 17 13 15 16 14 15 15 14 14 14 13 14 15 19 21 18 17 15 18 13 17
18 22 15 15 20 23 24 25 24 24 26 26 27 31 35 21 25 27 28 27 31 29 28 35 32 29 41 38 34 31 22 25 22 25 31 29 28 30 28 29 30 29 27 27 26 27 28 30 28 28 26 25 25 25 25 23 22 22 24 25 21 23 24 22 16 13 16 17 13 16 17 17 19 19 16 16 14 14 14 15 14 15 16 15 12 13 14 15 17 18 18 17 17 16 19 16 16
22 15 12 18 21 23 24 24 19 25 23 27 27 31 32 31 28 25 28 33 34 30 32 35 37 31 26 39 34 29 27 21 23 25 27 29 30 32 33 33 32 33 30 27 28 26 28 29 27 27 25 24 25 27 28 26 26 25 22 21 21 20 21 19 18 16 13 17 17 18 17 18 18 18 17 17 15 14 15 16 16 14 17 17 16 15 16 14 15 15 17 17 16 17 19 19 16
22 18 17 16 19 21 22 19 20 20 21 26 26 24 36 32 26 25 25 30 32 31 35 39 36 34 31 26 30 39 33 23 23 25 30 28 29 29 29 31 30 30 28 29 29 27 27 27 28 27 27 26 25 26 29 27 25 26 26 23 20 19 18 15 18 17 14 18 18 15 19 18 18 17 18 16 17 16 15 17 17 15 16 17 17 16 13 14 16 17 18 18 16 16 18 15 16
16 24 21 15 17 20 20 21 19 19 21 24 24 26 38 34 27 28 22 29 31 33 34 38 41 35 32 33 28 24 26 31 28 27 28 34 35 31 29 30 28 26 27 27 26 27 28 27 27 28 26 26 26 27 29 27 24 23 22 22 23 21 20 16 18 20 17 16 20 17 19 18 18 17 18 17 17 18 16 17 18 18 16 17 17 17 15 14 15 16 19 19 17 17 16 16 17
22 24 21 20 19 21 20 21 22 21 23 25 24 27 31 38 29 27 30 33 28 23 24 28 36 35 30 25 29 29 25 21 28 30 24 25 32 34 31 30 28 27 27 27 26 27 26 26 27 28 27 26 26 29 28 28 27 25 27 26 23 21 21 20 18 21 18 17 21 20 20 18 17 19 17 19 17 17 17 17 18 18 17 15 17 17 18 17 16 16 16 17 17 18 16 16 13
21 21 18 21 21 21 22 21 20 24 27 24 26 29 29 39 27 31 29 25 27 29 27 25 27 36 37 29 31 32 29 29 24 28 29 22 25 29 30 31 29 29 27 27 25 25 26 26 28 29 27 27 27 27 28 29 28 27 25 25 24 22 21 23 23 24 24 20 21 21 19 18 18 18 18 18 19 17 16 17 17 18 18 17 17 17 17 17 16 15 15 16 16 15 15 16 15
17 16 17 19 22 21 22 20 23 25 29 21 21 24 32 35 32 29 28 30 31 33 32 28 33 28 27 37 34 28 32 32 32 22 11 15 25 32 30 26 26 26 30 30 30 26 25 25 29 31 29 28 29 28 29 28 26 26 27 26 25 24 23 24 22 20 21 22 22 20 21 22 19 20 21 21 21 19 17 17 18 20 19 19 18 16 17 17 17 16 16 16 16 15 17 18 17
17 19 16 17 22 19 19 21 23 23 23 22 24 24 31 27 29 26 33 37 37 35 30 29 29 26 28 30 29 32 29 37 37 29 23 18 21 25 29 29 29 27 26 30 32 31 27 26 26 29 30 30 28 28 31 30 30 28 27 27 26 26 24 26 25 22 23 22 21 22 24 24 25 25 23 24 22 21 19 16 17 17 15 16 17 16 16 16 18 18 17 18 17 17 15 16 16
18 19 18 15 19 25 21 21 20 22 23 27 27 29 21 22 19 19 26 29 34 36 37 30 27 26 24 26 30 27 34 33 37 36 28 21 21 22 23 27 30 29 29 29 28 28 28 28 29 29 27 27 27 28 28 30 31 28 26 26 26 25 25 25 26 23 22 24 23 22 22 21 23 23 24 21 19 21 19 17 17 18 15 15 16 17 15 16 18 18 17 18 17 16 17 17 16
18 20 20 16 19 16 21 21 25 24 25 25 23 24 20 26 24 32 31 30 28 31 32 34 37 29 25 24 25 27 25 27 31 29 30 31 28 24 24 25 26 27 29 29 30 30 30 30 29 31 32 32 30 28 28 31 30 30 26 25 27 27 25 23 22 21 20 23 23 23 22 22 22 20 18 19 20 20 20 18 19 19 17 15 16 17 16 14 17 19 18 18 18 16 17 18 17
11 14 14 14 10 14 17 17 22 21 22 32 25 28 30 26 28 29 30 29 28 28 28 34 36 31 22 19 18 22 29 31 21 14 22 25 29 27 30 25 25 26 31 30 29 30 31 30 30 31 33 30 31 32 31 29 29 28 27 25 25 25 26 23 26 26 26 24 23 23 23 22 19 19 19 19 21 20 20 19 19 20 19 17 15 16 17 14 16 18 19 18 19 16 16 19 17
21 18 16 18 15 16 15 20 17 19 24 26 21 25 25 24 29 16 23 25 26 27 30 32 32 33 30 24 21 21 24 25 23 19 14 9 12 16 21 24 27 30 28 30 32 29 31 32 33 35 33 31 31 31 30 29 30 30 28 27 25 25 27 26 26 26 25 23 22 22 20 21 23 24 21 18 20 22 20 20 19 19 19 18 17 17 17 16 16 17 18 19 19 17 17 15 16
21 22 19 24 17 16 9 16 20 21 23 25 24 23 28 26 28 23 22 22 20 23 27 28 30 26 29 30 28 26 27 23 21 19 20 22 16 12 9 14 24 33 32 32 31 33 31 27 32 35 35 36 36 33 30 30 30 29 29 29 28 27 26 26 23 22 21 23 25 24 24 25 21 20 22 20 21 22 22 21 19 18 19 20 18 17 17 17 16 17 17 18 17 17 18 17 15
13 15 20 17 21 19 20 18 21 27 26 21 25 24 29 23 25 21 25 24 23 21 22 24 26 25 19 18 21 29 26 27 28 24 25 25 20 15 8 8 15 23 27 32 33 30 30 36 35 31 33 35 32 32 32 31 28 27 26 26 26 26 26 26 25 25 25 24 25 25 24 21 24 24 22 21 21 22 23 23 20 19 19 19 20 18 18 17 16 17 17 18 18 18 18 18 16
15 16 14 15 20 14 21 21 26 26 28 26 27 30 28 22 19 24 25 26 25 24 25 24 24 23 26 28 22 18 19 25 31 31 30 24 19 16 13 9 8 18 20 21 23 25 29 31 31 33 35 31 29 30 28 27 27 26 25 26 27 27 25 25 24 24 24 24 22 24 25 24 21 22 23 23 23 23 22 23 21 20 20 20 20 20 18 18 18 16 17 18 18 20 20 18 17
19 19 22 21 21 21 18 25 19 28 29 29 24 36 33 26 23 21 26 27 27 27 27 25 26 28 21 18 21 23 24 21 18 22 22 22 24 13 8 9 9 11 16 24 27 26 26 30 23 23 22 23 25 27 26 26 25 26 26 27 26 26 27 26 25 25 25 26 24 23 23 23 22 24 24 25 24 22 21 22 21 21 20 19 20 21 19 19 20 18 18 18 20 21 20 18 17
Wind_Speed
1 3 3 3 3 3 2 3 1 2 1 5 4 4 5 6 11 11 12 8 5 3 5 10 10 10 9 2 10 8 2 1 2 6 4 2 12 13 17 18 18 17 15 13 12 13 14 17 18 18 19 20 19 19 20 20 20 19 18 17 17 17 17 16 16 16 15 14 14 14 14 14 14 15 16 16 15 14 14 14 13 13 12 13 12 12 11 10 10 10 10 10 10 10 10 10 10
2 4 3 4 3 1 2 5 1 3 2 5 8 6 9 10 6 11 12 7 2 3 7 14 15 15 13 7 5 10 10 5 2 6 6 12 14 13 17 19 19 19 15 13 12 12 12 15 18 17 18 20 19 20 20 20 20 19 18 18 17 17 17 16 15 15 15 14 14 14 14 14 13 15 16 16 15 14 13 14 13 13 12 12 12 11 10 9 9 9 9 9 9 9 9 9 9
3 3 4 4 2 2 4 2 3 2 4 6 6 9 9 9 10 10 13 12 5 5 7 13 15 11 10 10 11 8 1 5 11 10 11 17 16 9 16 18 16 18 18 12 12 12 11 14 18 18 19 18 18 19 19 19 19 19 18 18 17 17 17 16 15 15 15 14 14 14 14 14 13 14 16 16 15 14 13 13 13 12 12 12 11 10 9 9 8 9 9 9 9 8 8 8 7
2 2 2 4 1 2 2 2 3 4 4 5 6 7 9 11 13 10 8 3 5 5 6 10 10 3 14 8 8 7 6 6 4 14 10 11 10 15 16 18 17 15 14 12 12 11 11 15 19 18 18 17 16 18 18 18 18 18 18 18 17 17 17 17 16 16 15 15 14 14 14 15 14 14 15 16 16 14 13 13 13 12 12 11 11 10 9 8 8 8 9 9 8 8 7 7 7
1 3 5 3 1 2 2 3 4 4 8 3 4 11 10 7 10 1 6 3 3 5 4 10 11 7 11 3 2 2 3 7 7 4 8 11 15 15 17 19 16 14 13 13 12 12 12 20 18 17 17 18 17 17 17 18 18 17 17 17 17 16 17 17 17 16 16 15 15 14 14 14 14 15 15 15 15 15 13 12 11 12 11 11 10 9 9 8 8 8 8 8 8 7 7 6 6
4 2 4 3 3 1 3 3 4 7 7 4 6 10 11 9 2 3 3 2 0 5 6 12 8 8 8 5 5 2 1 3 8 5 13 14 19 18 19 17 15 13 13 12 12 11 13 20 20 18 17 18 18 18 17 16 16 16 16 16 16 17 17 16 16 16 16 15 15 15 14 14 14 15 14 14 15 15 14 13 11 10 11 10 10 9 8 7 7 7 8 8 8 7 6 6 5
2 2 1 3 4 2 4 4 6 5 8 9 8 14 11 4 3 5 4 2 12 15 17 13 18 12 8 1 3 5 7 4 1 12 13 17 20 19 19 16 16 15 14 13 12 12 16 20 20 19 19 18 19 19 18 16 16 16 16 16 16 16 17 17 16 15 15 15 15 15 14 14 15 14 14 14 15 14 13 12 11 9 9 9 9 8 7 7 7 7 7 8 8 7 6 5 4
5 2 3 4 4 3 4 7 8 5 5 8 11 13 18 8 17 0 2 8 4 2 10 10 11 11 3 7 2 6 9 5 13 20 21 17 18 19 19 17 16 15 14 13 12 12 18 21 20 20 19 18 18 18 19 17 17 16 16 16 16 16 15 17 16 15 14 15 16 15 14 13 14 13 12 13 14 14 14 13 11 10 8 8 8 7 7 7 7 7 8 8 7 7 6 5 4
4 4 2 2 5 2 4 8 8 7 10 11 15 17 17 13 16 8 7 5 7 10 11 13 11 13 1 6 4 5 7 11 17 20 20 20 18 18 14 16 16 14 14 13 13 13 14 20 20 20 20 20 18 19 18 18 16 16 17 16 16 16 15 14 15 14 12 12 14 14 15 13 13 13 13 12 13 13 13 12 11 11 9 8 8 7 7 6 6 7 7 8 7 7 7 6 5
3 6 3 2 2 8 7 6 7 8 10 12 16 20 16 11 14 16 15 10 11 17 14 13 13 12 9 8 4 7 5 10 14 13 16 17 18 16 16 17 15 16 15 13 13 13 12 20 21 20 19 20 18 17 18 17 17 16 16 15 15 15 16 14 13 13 12 11 15 14 14 13 13 13 12 11 13 13 13 12 11 10 9 8 8 8 7 6 6 6 6 7 7 7 6 6 6
3 2 2 4 5 7 7 5 6 5 8 8 14 21 18 14 14 11 12 18 2 10 13 19 12 14 9 5 1 4 9 6 8 3 13 17 17 17 15 15 13 14 15 15 14 12 13 14 21 20 19 18 17 15 15 15 16 16 15 15 15 15 15 13 13 13 13 13 15 15 14 13 12 12 11 12 15 14 13 12 11 10 9 9 8 7 6 5 5 5 6 7 7 7 6 6 6
2 2 2 5 8 5 5 7 9 7 9 7 12 17 10 11 10 12 10 11 13 11 7 5 3 10 9 10 5 3 7 7 9 11 11 15 14 15 14 12 14 13 14 16 14 12 12 13 13 19 20 19 17 16 15 17 16 15 15 15 15 15 15 14 13 12 12 14 15 15 14 13 12 13 11 12 15 14 12 12 10 10 8 7 6 6 5 5 4 5 6 6 7 7 6 6 5
3 2 4 4 3 4 8 9 7 10 7 10 7 9 5 12 10 10 10 16 17 18 7 13 14 5 3 4 3 3 3 6 5 4 11 12 12 12 14 14 15 15 14 13 14 13 12 11 11 12 15 21 17 16 16 17 16 16 15 15 14 15 15 14 14 13 12 14 15 13 13 12 12 12 11 13 15 13 12 11 10 10 9 7 6 4 5 4 4 4 5 6 6 6 5 5 5
2 3 2 5 4 7 6 8 8 7 8 9 11 15 16 6 4 6 1 1 11 10 13 18 13 15 8 5 2 4 3 4 3 3 11 13 11 12 15 13 15 15 14 13 12 12 11 10 9 10 14 13 11 15 16 16 16 16 15 14 14 13 13 14 14 13 12 14 15 13 13 12 12 13 12 15 15 13 12 11 11 9 9 8 6 4 4 4 5 5 5 5 5 5 5 4 5
2 5 1 4 8 5 5 6 6 8 9 7 11 13 10 14 12 6 3 5 4 17 12 9 15 15 8 12 4 9 9 11 2 6 12 12 13 14 16 13 13 13 12 12 11 11 10 10 9 9 10 10 10 8 8 12 16 16 15 15 15 14 13 13 15 14 14 15 15 14 13 13 13 14 15 16 15 14 12 12 11 10 9 8 6 4 4 4 5 5 5 4 5 5 4 4 4
7 6 5 5 8 7 8 8 6 9 9 8 6 11 10 12 18 13 3 1 10 8 18 7 4 2 14 16 18 16 17 12 11 7 10 13 14 13 13 13 12 11 11 11 9 8 8 9 8 8 8 9 8 7 7 8 13 15 16 16 17 15 15 14 16 16 15 14 14 14 15 12 12 12 17 13 15 15 13 9 11 10 10 9 6 5 3 3 4 5 5 4 4 4 3 3 3
4 4 7 10 14 12 6 5 6 7 6 9 10 10 14 13 10 4 5 7 15 2 3 7 4 8 16 8 12 18 18 14 9 7 7 9 10 10 9 8 9 9 8 9 8 8 8 8 9 8 8 9 8 8 7 7 10 15 14 15 17 16 15 16 16 16 14 13 12 13 12 9 6 7 10 8 13 9 12 12 11 11 10 9 8 5 3 3 3 4 4 4 3 4 3 2 2
3 4 5 11 12 16 11 12 8 8 9 14 15 10 13 17 14 10 8 12 17 8 8 5 10 5 9 8 18 17 13 14 13 9 8 9 9 9 8 7 8 9 9 8 8 8 8 8 10 9 8 9 9 7 6 6 7 10 7 8 8 11 13 13 11 8 10 6 13 10 6 7 6 6 6 10 6 8 10 13 11 11 10 10 8 5 3 2 2 3 3 3 4 3 4 1 1
8 3 4 12 10 13 9 10 11 11 15 14 17 16 15 14 13 7 9 10 9 8 5 4 8 6 9 13 16 17 15 14 13 11 15 12 9 9 8 6 7 9 8 8 8 10 8 8 9 10 9 9 9 7 7 6 7 6 7 7 6 9 9 8 6 8 6 7 6 7 6 6 6 6 6 8 6 12 10 13 12 12 11 10 9 6 4 3 2 2 3 3 4 4 2 2 3
10 6 9 12 9 9 10 12 15 16 17 19 20 16 15 15 14 8 3 7 6 14 8 3 6 8 7 8 12 17 16 12 8 13 15 14 11 11 9 6 7 7 7 7 9 8 9 8 9 9 11 10 9 7 7 7 6 6 5 6 5 6 6 6 6 6 6 6 7 6 6 7 7 6 10 16 14 8 8 13 13 12 12 10 9 6 4 3 4 3 3 3 4 3 2 4 3
6 10 11 11 10 11 14 15 18 19 22 18 20 15 18 15 13 6 4 4 5 3 11 16 13 9 8 7 8 7 10 11 12 14 15 14 11 8 8 6 6 1 5 4 5 5 8 8 8 8 9 9 9 8 8 7 7 7 6 6 6 6 5 6 6 6 6 7 6 6 7 7 7 7 6 6 6 7 6 5 6 5 4 4 7 3 2 2 3 3 3 3 3 4 4 5 3
5 14 16 14 8 13 17 19 20 18 20 21 22 21 18 14 11 13 11 2 4 1 3 10 16 15 15 13 11 11 10 11 12 12 14 13 13 11 9 8 9 5 7 5 5 6 8 7 9 7 9 9 9 8 8 9 9 7 7 7 7 6 6 6 6 6 6 7 6 7 7 7 7 7 6 7 6 7 7 5 5 5 4 4 4 5 4 3 3 4 3 4 5 5 5 4 4
12 9 14 14 11 11 12 21 16 17 15 19 18 19 12 10 10 12 15 9 4 13 9 8 7 14 12 13 12 12 14 15 14 14 14 14 13 12 10 11 12 10 7 6 9 6 7 9 10 9 8 9 9 8 8 8 8 8 7 7 8 7 6 6 7 7 6 8 7 7 6 6 6 7 7 7 7 8 7 6 6 6 6 5 5 5 4 4 5 5 5 5 6 5 4 5 4
12 12 9 11 14 19 11 11 17 18 19 17 15 16 16 11 15 4 11 8 10 14 16 20 15 13 13 11 10 14 14 13 12 14 15 14 15 14 11 13 9 9 9 8 10 7 5 10 10 10 8 9 8 8 9 8 8 9 8 9 9 9 8 7 7 7 6 8 8 7 6 6 6 6 7 7 7 7 8 8 7 6 6 5 6 6 5 5 5 6 5 6 6 6 6 6 5
15 14 11 11 11 13 17 15 14 13 13 15 15 17 17 14 13 13 12 6 12 3 9 18 15 14 12 12 7 4 7 7 9 7 6 8 8 11 10 11 8 5 5 6 5 2 8 9 9 11 10 11 9 9 8 8 9 8 8 8 8 9 8 8 7 7 6 8 8 8 7 7 6 6 7 7 7 8 8 8 7 7 6 6 6 6 6 6 6 6 6 6 6 6 5 6 4
9 12 11 11 12 12 12 15 19 20 14 11 10 13 16 17 14 14 19 18 18 7 9 13 15 17 14 15 14 11 9 10 10 10 9 7 8 11 11 12 10 7 7 5 6 5 0 9 11 13 11 12 10 10 8 9 10 8 10 9 8 9 9 9 7 7 6 8 8 8 9 7 6 6 7 7 8 8 9 8 8 7 7 6 6 6 6 6 7 6 6 6 7 6 7 4 6
7 10 10 11 13 15 14 15 17 21 17 14 16 15 14 12 12 13 10 16 16 14 6 12 14 17 14 13 10 9 10 8 11 7 7 4 7 12 11 12 12 10 9 10 8 6 7 7 9 13 12 12 9 12 9 10 10 8 10 9 8 9 9 8 7 7 6 8 8 9 8 8 7 6 7 6 7 7 7 7 7 7 6 6 7 7 6 7 7 7 6 7 6 8 1 7 9
9 7 10 10 9 8 10 17 16 10 14 20 17 18 16 18 11 14 11 9 13 15 6 12 14 13 14 14 13 11 11 9 9 8 11 11 9 9 12 12 11 10 11 11 8 7 7 7 10 13 12 12 9 12 10 10 10 8 10 9 8 9 9 8 7 7 7 8 8 8 7 8 7 6 7 6 6 6 5 6 7 7 7 6 7 7 8 8 7 8 8 7 7 3 6 6 7
9 8 9 9 13 11 7 8 13 18 14 15 20 19 19 16 19 17 10 7 12 16 15 14 13 14 14 17 13 11 11 12 10 11 12 10 9 9 14 13 16 13 7 11 11 11 10 8 7 13 13 11 11 11 10 9 9 8 9 10 8 9 8 8 7 7 8 7 8 7 7 7 7 6 6 7 7 6 5 6 7 7 8 6 8 9 10 8 7 6 7 3 4 5 7 6 5
8 5 4 7 8 8 7 5 6 5 3 5 6 12 12 18 19 20 15 8 5 7 6 3 12 13 12 13 13 12 8 9 10 12 11 10 9 9 9 8 12 16 11 8 11 11 9 6 5 9 12 13 12 11 8 9 10 7 9 9 9 10 8 8 6 7 7 7 7 7 7 6 6 5 5 6 6 6 6 6 5 5 6 6 7 8 8 7 7 4 1 6 6 6 6 7 6
7 8 5 6 6 6 9 6 6 9 3 5 5 10 7 8 20 21 15 12 15 11 11 6 9 11 15 14 13 12 13 15 16 14 13 14 13 12 15 14 13 13 12 9 14 13 10 7 7 8 11 13 12 11 8 9 8 6 9 8 8 9 8 7 6 6 6 7 7 7 7 6 6 5 4 6 6 6 6 5 5 5 4 4 5 6 6 6 6 2 5 6 6 5 5 5 6
5 6 5 3 6 5 9 6 9 8 2 3 4 7 9 9 7 6 8 14 16 19 18 15 8 11 12 11 14 15 16 17 18 18 18 16 12 11 12 15 14 14 17 15 14 19 16 13 12 13 13 14 13 11 7 7 8 7 7 7 7 6 7 7 6 6 6 6 6 6 6 6 6 5 4 5 6 6 6 6 6 5 4 4 5 4 4 5 3 6 3 6 7 5 5 5 5
4 5 6 7 3 5 7 8 10 11 6 7 8 7 6 7 7 7 7 6 15 20 20 17 9 9 13 12 11 13 15 14 13 15 17 15 13 13 13 14 14 16 17 16 15 17 17 15 14 19 16 15 13 11 7 5 7 8 7 8 8 7 7 7 6 6 6 6 7 7 6 7 6 5 4 5 5 5 6 6 6 6 5 5 5 5 4 1 3 6 2 2 6 6 6 5 4
4 2 6 5 7 4 7 5 8 5 5 8 7 9 11 6 5 7 3 4 7 12 16 13 12 9 10 15 14 12 13 14 13 13 14 15 13 15 14 15 16 15 14 16 16 19 18 17 16 17 14 14 12 11 8 7 7 7 7 7 7 7 7 7 6 6 6 6 7 7 8 7 7 6 5 5 6 5 5 6 6 6 6 6 6 6 3 2 5 5 3 0 4 6 5 7 6
7 6 6 6 8 12 11 6 1 8 11 13 15 14 14 12 7 11 11 11 3 5 8 13 15 10 9 15 14 14 13 15 16 16 19 18 17 15 14 14 14 14 12 15 15 17 17 16 12 13 14 13 12 11 8 6 6 5 6 7 8 7 6 7 6 6 6 6 7 8 9 8 8 7 6 6 7 5 5 6 7 6 6 6 6 5 4 3 3 5 3 2 2 4 6 6 7
10 8 7 7 7 7 11 13 13 9 7 14 17 16 15 16 16 13 14 11 15 12 4 4 6 7 7 11 15 14 14 14 13 14 16 15 15 15 13 13 14 15 14 15 16 18 18 16 13 13 13 13 11 10 9 7 6 6 8 6 8 7 7 7 6 6 6 7 7 9 9 8 8 7 6 7 7 6 6 7 7 6 7 7 7 6 4 2 4 5 5 5 4 2 1 4 5
8 8 8 4 4 6 6 7 9 14 12 10 13 18 19 16 13 14 16 14 18 17 14 10 6 8 9 8 11 15 14 14 13 16 17 18 18 17 16 15 15 16 15 16 16 17 18 17 16 16 14 13 12 12 11 10 9 7 6 7 9 8 8 8 7 6 7 8 7 9 9 8 9 8 7 7 8 7 6 6 7 7 7 7 7 7 7 5 3 4 6 3 5 4 2 3 5
7 7 9 7 7 7 10 12 11 10 5 5 4 8 16 19 17 14 12 16 16 17 19 14 13 6 8 11 10 10 13 11 13 11 15 16 16 17 15 14 15 17 14 14 16 19 18 17 18 17 14 15 15 15 14 12 11 11 10 8 8 8 9 9 8 6 7 8 8 10 10 9 10 9 8 7 9 8 6 6 7 7 7 7 7 7 9 7 6 4 5 4 3 6 5 5 7
5 3 5 8 7 6 11 10 5 7 8 7 6 5 4 3 4 7 16 14 10 14 16 18 16 17 8 8 12 10 8 11 13 14 16 17 18 18 15 14 16 18 19 19 18 18 18 17 16 16 15 16 15 13 12 13 10 8 7 5 8 7 7 8 8 6 7 8 8 10 10 10 11 9 9 8 9 8 7 7 7 7 7 7 7 7 9 9 8 8 7 7 5 2 2 4 7
4 6 3 6 6 6 8 13 8 7 4 8 8 9 6 5 4 5 3 0 6 7 12 20 17 14 12 9 11 14 12 12 17 15 14 16 16 17 16 15 15 14 13 13 12 13 13 15 16 16 16 15 13 14 13 12 11 8 5 5 5 8 7 7 7 5 7 8 8 10 9 10 11 10 9 9 8 9 9 8 7 7 7 7 7 8 10 10 9 8 7 6 7 6 3 5 5
7 8 4 4 4 6 7 9 13 8 4 9 10 9 6 6 8 5 1 4 5 5 4 2 4 4 7 10 8 10 11 9 17 17 16 15 16 18 18 17 15 15 15 15 16 15 11 15 17 18 17 16 14 14 14 12 10 8 7 4 4 6 5 7 7 7 7 9 8 9 10 10 12 11 9 10 9 9 9 8 8 8 8 7 7 8 8 10 10 9 9 8 9 8 7 4 5
3 7 10 7 7 8 8 8 13 8 5 0 7 5 6 4 5 7 4 0 3 4 5 5 5 6 4 6 9 8 8 8 14 20 20 19 19 18 17 18 18 17 18 17 18 18 17 15 15 15 13 13 13 15 14 13 12 12 10 10 9 10 10 10 12 12 9 10 11 6 11 11 11 11 10 9 10 8 9 9 8 9 9 8 8 8 7 8 9 8 9 8 9 7 10 7 7
4 6 5 8 3 6 10 12 10 8 9 3 3 4 6 5 6 8 8 1 3 4 7 7 7 6 6 5 6 4 6 7 5 9 13 17 19 19 18 18 18 17 17 16 16 17 18 17 17 17 15 14 13 14 15 12 12 12 14 14 12 12 12 10 8 8 6 7 7 8 10 10 11 12 10 10 9 8 8 9 9 9 9 8 7 7 8 9 9 10 9 7 8 8 7 8 9
4 7 4 8 11 10 10 10 8 5 3 9 6 3 4 8 9 7 10 11 6 4 6 9 10 9 6 7 8 10 7 5 9 12 15 16 19 20 21 21 19 19 18 16 16 15 18 19 18 17 14 14 14 14 16 15 14 14 13 13 12 11 11 10 10 9 6 8 9 9 8 10 10 11 10 10 9 9 9 9 9 8 9 9 9 8 9 8 8 8 10 10 8 8 10 9 8
3 5 7 6 8 7 8 7 7 6 8 8 9 7 4 2 6 7 9 11 8 8 8 9 9 11 9 9 11 12 13 10 6 8 16 16 17 19 19 19 20 20 18 18 17 17 16 16 17 17 16 15 14 16 16 16 14 15 15 12 11 10 9 7 8 8 7 8 10 8 8 9 10 10 10 10 10 10 9 10 10 9 9 10 9 8 8 9 10 10 10 9 9 8 9 7 8
7 14 14 1 4 4 5 4 4 7 6 7 9 5 3 5 5 7 6 9 12 7 7 6 8 10 10 9 10 10 11 13 7 11 18 22 21 20 19 19 18 16 16 16 16 16 16 16 16 18 17 14 14 16 16 17 16 13 12 13 14 12 10 8 8 10 8 8 10 10 9 8 9 9 10 10 10 11 10 10 10 11 9 10 9 10 9 9 9 10 12 11 10 10 8 8 9
7 6 9 5 1 2 4 3 1 2 3 7 10 9 5 7 4 4 3 3 5 9 8 6 8 12 13 12 10 11 12 8 8 4 9 13 14 15 16 17 18 17 16 17 16 16 16 16 17 18 17 15 15 17 17 18 15 15 15 16 15 13 14 12 9 10 9 8 11 11 11 10 8 9 9 9 10 10 10 10 11 11 10 8 10 10 10 9 9 10 10 11 11 12 9 9 7
7 2 6 5 7 3 3 4 2 1 4 9 7 9 8 6 4 6 5 9 11 10 10 14 7 6 12 8 6 9 10 11 10 6 6 12 14 17 17 18 19 19 17 17 15 15 15 15 16 18 16 16 15 16 17 16 15 16 16 16 15 14 13 12 13 13 13 12 12 12 10 9 9 9 9 9 10 10 9 10 11 11 10 9 10 9 10 9 9 9 8 9 9 9 9 9 8
7 7 6 3 2 2 3 3 1 4 6 3 4 4 4 3 3 7 11 12 14 12 11 8 13 11 9 13 14 10 7 8 10 7 5 8 12 12 14 16 17 17 17 19 19 16 15 15 18 20 18 17 17 17 18 18 16 16 16 16 15 14 14 14 13 12 12 11 10 10 11 11 10 10 11 11 12 12 9 10 10 11 10 11 10 9 10 10 10 9 9 10 9 10 9 10 9
4 2 1 3 2 1 2 3 1 2 5 5 6 10 4 5 7 9 12 12 12 12 13 14 9 12 18 20 16 13 11 11 10 8 7 8 13 15 15 14 13 12 15 18 20 19 16 14 17 19 20 19 18 18 19 19 19 17 17 16 15 14 14 14 13 12 13 12 10 12 12 12 12 14 13 13 12 12 10 9 10 10 9 10 10 9 10 10 11 10 10 10 11 9 8 10 10
3 2 3 3 1 0 1 0 2 3 4 10 11 5 3 1 4 5 11 9 7 10 12 12 11 10 11 15 17 13 7 7 8 10 10 5 12 14 15 15 15 16 17 15 14 16 17 17 17 18 17 17 17 17 17 19 18 18 16 15 14 13 13 13 13 11 12 13 12 12 12 11 12 12 13 11 11 12 12 9 10 11 9 10 10 10 8 9 11 10 10 11 10 9 10 10 9
2 3 2 1 5 5 4 3 2 3 5 7 5 2 2 5 8 16 14 16 15 12 14 12 11 9 7 9 13 15 12 6 7 12 13 9 9 13 15 12 8 10 15 16 19 17 17 18 19 20 20 20 19 18 18 18 18 17 17 15 15 14 13 12 11 10 10 13 13 13 12 12 12 10 10 10 12 12 12 11 10 11 10 9 10 10 10 8 10 11 10 10 10 8 10 11 10
2 3 2 3 2 5 1 2 4 3 1 6 1 6 7 6 8 12 16 15 16 11 11 13 12 9 8 9 10 13 11 8 6 6 5 4 3 2 4 6 13 14 13 12 14 16 20 19 18 20 21 19 20 21 20 18 18 18 18 16 14 14 14 13 13 15 15 13 13 13 12 12 10 10 10 10 12 12 11 11 11 11 11 10 9 10 10 9 9 10 10 11 11 9 9 11 9
1 1 3 7 3 3 1 1 2 1 4 4 3 6 6 4 7 3 7 7 9 11 10 11 9 7 7 8 9 11 13 13 10 9 2 5 1 4 7 8 10 14 16 17 18 17 18 19 21 23 21 20 20 20 19 18 19 19 17 17 16 15 14 15 13 14 14 11 12 12 11 10 12 13 11 10 11 13 12 12 11 11 11 11 10 9 10 9 9 9 10 11 10 10 10 8 9
5 3 3 2 2 4 1 2 3 3 2 3 3 6 8 7 7 4 10 11 8 10 10 8 10 9 8 9 11 13 14 13 14 12 9 3 2 2 3 6 10 14 10 11 17 20 17 17 20 22 23 23 23 18 18 17 18 15 15 16 16 15 14 13 12 12 12 12 13 13 14 14 12 11 11 11 12 13 13 12 11 11 11 12 11 10 10 9 9 9 9 10 10 10 10 10 9
5 2 4 4 1 3 0 4 2 0 5 4 5 5 7 6 6 9 14 13 12 12 12 11 10 10 9 7 5 10 13 14 15 14 13 6 4 4 3 3 3 11 17 19 18 15 18 20 20 20 21 22 21 21 20 19 17 14 13 13 14 15 15 15 14 13 13 14 14 14 14 13 14 13 13 12 12 13 13 13 11 11 11 11 12 10 10 10 9 9 10 10 10 11 11 11 9
7 3 3 4 1 3 4 1 3 3 2 3 7 8 4 4 3 7 11 14 16 14 15 13 11 12 12 7 7 9 8 12 16 15 14 8 5 4 4 5 2 3 5 6 1 5 9 15 20 22 23 20 18 19 18 16 15 15 14 14 14 13 14 14 14 14 13 13 13 13 14 13 12 12 13 13 13 14 14 13 13 12 12 12 12 12 10 10 10 10 10 11 11 12 12 10 9
2 6 3 7 8 8 6 4 1 2 3 2 3 13 3 6 6 9 12 14 16 15 12 14 14 14 13 7 8 8 6 9 10 13 13 3 3 5 4 3 5 1 0 2 10 10 9 15 11 6 12 12 15 16 15 14 12 12 14 14 14 13 13 13 15 15 15 14 13 13 14 12 13 14 14 14 15 13 12 13 13 13 12 12 12 12 11 10 11 11 11 9 11 12 12 11 10
Wind_Direction
246 168 187 179 216 269 229 214 62 254 199 246 247 249 255 218 239 264 266 279 265 196 114 63 58 81 73 154 112 110 106 293 280 129 195 175 131 117 117 120 125 128 133 141 140 137 136 138 140 141 141 140 137 139 140 140 139 138 137 136 133 130 129 129 129 128 129 128 127 125 125 124 123 120 116 112 111 110 109 109 109 108 107 105 100 96 91 84 80 78 76 75 75 77 80 82 85
296 176 181 185 214 150 259 168 229 268 202 254 243 245 244 251 246 235 249 244 146 191 113 97 90 75 60 320 78 72 31 27 345 114 93 109 99 117 124 127 135 134 136 140 139 136 137 139 140 141 143 141 139 140 142 141 141 140 140 139 135 134 132 132 132 132 133 133 131 130 129 128 127 125 119 117 115 114 114 113 114 113 110 108 104 98 91 85 80 76 75 73 72 73 76 79 84
335 339 192 186 274 209 298 222 249 228 218 250 256 221 237 246 248 247 235 225 232 143 100 92 80 78 65 2 49 78 270 48 97 103 117 115 114 134 130 129 130 132 134 140 139 137 137 139 140 141 142 142 141 142 143 142 143 142 142 142 142 140 137 134 135 137 137 137 135 134 132 132 130 130 124 121 120 120 119 118 118 117 114 112 107 100 92 84 78 75 72 70 68 68 71 74 78
282 220 228 148 262 146 265 220 226 237 254 237 281 263 227 229 235 248 218 184 123 106 132 83 62 308 96 71 105 75 106 81 93 127 126 134 133 138 130 124 129 129 133 138 139 138 137 139 139 141 141 141 141 143 144 144 144 143 142 145 144 143 140 138 140 142 141 138 138 136 136 134 134 131 129 125 125 125 121 122 121 121 119 115 111 102 93 83 74 69 67 66 67 66 65 71 76
207 264 166 230 242 228 196 200 207 190 239 239 249 278 269 254 240 329 9 85 68 102 85 116 93 97 106 100 51 103 120 104 96 103 99 105 122 129 125 125 129 135 135 138 136 136 139 139 138 141 141 141 141 144 145 145 145 146 145 145 146 144 141 142 143 146 143 141 142 141 138 138 136 137 133 130 129 127 125 122 125 124 122 115 107 96 84 75 66 62 63 62 64 64 62 62 68
202 246 214 201 217 305 321 281 239 234 231 227 244 261 265 281 307 12 106 355 141 34 76 49 101 122 65 36 353 59 205 134 164 98 112 130 127 128 125 127 132 133 137 134 135 138 141 140 139 141 141 143 143 144 146 147 148 148 145 144 147 147 145 144 146 148 146 144 145 144 141 140 139 140 136 134 131 127 126 127 127 127 124 121 111 100 94 83 75 66 63 62 60 59 58 54 58
221 135 262 196 289 250 225 241 256 241 242 240 251 261 274 284 323 332 112 129 1 70 86 104 101 98 90 182 349 356 4 88 153 119 121 129 126 127 129 131 134 137 136 135 137 138 142 141 141 142 142 144 146 146 147 148 150 149 150 150 150 152 149 147 148 150 149 146 146 145 144 143 141 139 141 138 132 130 131 131 131 126 125 126 114 103 98 86 74 65 61 62 59 58 56 56 57
230 191 199 162 231 170 231 247 255 252 261 249 255 262 264 302 328 326 294 266 234 81 89 82 87 89 78 275 131 332 12 12 93 113 121 125 127 129 131 134 134 140 134 135 138 141 142 142 143 143 143 145 148 149 149 151 152 153 154 154 154 154 154 151 152 152 153 151 145 148 148 145 142 141 141 142 135 134 134 135 131 127 130 121 117 105 92 80 69 62 58 59 57 56 57 57 67
209 185 256 274 229 235 232 227 245 250 273 280 283 278 287 307 296 317 262 138 189 106 80 99 106 93 342 28 31 336 9 351 102 120 126 129 130 132 133 136 139 136 132 135 138 141 142 144 144 145 145 145 150 151 150 152 152 153 154 155 157 156 157 157 155 154 153 151 149 149 151 148 142 142 147 143 135 135 136 133 132 134 133 127 119 104 86 77 69 64 62 60 59 56 57 64 69
288 181 221 202 200 238 241 239 231 229 239 253 267 273 283 295 294 296 302 288 108 95 105 91 102 112 131 94 10 342 329 344 5 122 129 129 130 132 134 140 134 125 130 135 138 140 143 145 144 144 145 145 149 152 152 152 153 152 152 151 156 159 158 155 156 149 153 152 148 149 152 147 143 145 147 138 138 134 134 134 136 136 136 127 111 96 88 79 71 67 69 69 67 68 67 66 71
320 314 207 255 240 252 243 265 243 250 231 231 243 258 264 275 276 291 292 290 184 120 121 110 87 119 114 48 83 213 250 55 36 227 135 129 130 132 137 129 117 125 130 134 138 140 143 144 144 144 144 142 146 150 152 150 151 151 150 150 151 156 157 154 151 148 156 147 149 151 150 148 146 147 146 142 135 130 127 128 131 133 135 118 103 99 97 84 71 72 69 72 74 77 76 74 73
290 279 338 245 239 222 245 247 260 261 257 234 234 246 247 252 265 272 275 296 86 71 84 65 131 113 86 127 180 263 252 149 158 230 131 124 130 131 120 109 111 117 125 133 135 139 142 142 142 147 145 142 144 151 151 150 150 150 149 149 150 153 155 153 152 148 148 143 147 150 150 149 150 149 149 142 133 138 131 131 132 134 135 137 120 106 101 89 80 67 70 73 75 78 82 81 80
291 326 288 285 262 243 258 259 246 252 261 264 263 261 233 238 246 252 262 105 134 133 146 123 144 124 87 68 284 262 194 207 190 240 121 123 123 119 111 115 118 121 126 129 134 138 141 139 142 146 144 143 145 150 152 150 151 150 149 149 150 153 156 154 150 147 146 143 141 146 148 152 154 148 148 136 137 137 138 130 133 133 133 132 131 122 107 107 92 78 72 70 78 81 82 88 86
167 266 313 281 292 281 274 280 261 250 243 253 271 279 282 267 223 239 64 152 121 126 151 145 133 114 98 106 340 348 294 262 292 224 120 125 124 119 114 119 122 124 127 132 136 140 137 136 140 143 143 143 145 150 152 151 152 150 150 149 149 152 156 152 148 148 147 144 146 147 152 156 156 151 146 138 139 138 138 137 139 139 138 140 144 130 128 115 104 91 82 79 80 86 86 88 89
46 356 267 247 273 286 272 261 274 263 257 233 228 244 262 279 265 252 300 338 122 136 147 126 135 115 194 130 216 186 215 229 189 243 124 122 119 110 114 116 118 122 126 129 136 139 138 136 140 142 138 139 141 144 146 152 152 153 150 151 151 152 156 157 153 153 154 151 153 154 156 159 158 152 147 141 141 142 140 143 144 147 143 147 146 147 140 130 116 107 92 86 90 88 91 85 88
143 204 275 267 254 258 258 260 262 269 262 249 242 228 252 254 259 270 266 258 132 163 146 143 188 123 167 156 181 178 188 195 179 161 132 120 112 110 114 117 119 124 126 129 131 134 136 138 139 141 140 139 140 140 145 148 154 154 155 156 155 153 158 158 157 155 153 153 155 158 160 160 160 155 150 147 146 148 147 143 154 151 150 149 151 157 163 139 133 118 110 96 97 105 103 101 104
170 165 212 231 251 249 254 273 269 256 301 290 302 17 339 325 342 282 273 287 109 82 20 130 158 127 158 175 158 165 174 167 143 151 120 110 107 112 113 111 112 115 124 127 134 138 140 140 140 141 142 144 141 140 146 150 155 157 159 159 159 158 159 159 156 156 158 161 161 163 163 157 156 148 153 149 153 149 150 153 156 155 154 150 156 165 166 166 135 127 121 111 104 114 125 137 133
167 210 204 225 229 239 232 248 261 302 304 299 304 326 322 322 325 344 322 82 118 100 70 68 58 67 148 128 142 159 156 145 149 151 113 120 117 119 117 115 116 126 131 135 138 142 149 150 148 146 148 151 149 147 148 154 155 159 155 162 162 162 163 161 159 157 159 162 163 159 152 154 146 146 147 153 146 151 154 160 162 162 155 158 155 161 176 174 171 145 135 138 132 134 155 174 201
198 211 204 230 218 236 234 250 276 281 280 293 298 307 311 301 313 349 349 77 77 88 78 48 78 71 98 123 139 147 147 151 163 140 131 117 108 104 101 107 112 125 133 140 146 154 159 155 154 153 155 156 154 150 152 154 158 158 163 161 165 165 169 164 161 161 156 161 153 147 145 140 143 147 152 154 149 157 162 164 167 164 164 161 157 160 172 202 222 203 179 162 152 166 189 226 223
205 212 224 234 235 248 250 262 268 273 273 283 287 291 302 304 296 312 264 14 149 134 140 67 76 100 101 125 139 150 149 144 140 127 98 77 68 61 36 46 119 138 142 150 155 161 160 163 159 156 159 159 156 156 155 153 159 162 167 166 168 169 171 167 169 168 167 167 160 152 148 150 154 156 171 167 164 159 170 167 171 171 169 163 164 164 179 211 235 248 226 201 158 179 199 226 222
170 211 226 229 225 251 250 253 263 271 275 272 276 290 291 290 289 278 333 335 114 230 158 146 146 143 144 147 127 114 127 122 90 99 106 97 92 105 110 94 14 5 141 118 145 170 165 159 160 158 158 160 163 162 159 160 162 164 169 174 172 173 177 177 179 178 174 173 165 167 163 158 161 167 175 164 149 152 156 148 163 165 160 159 164 139 160 207 227 245 241 217 191 197 207 230 225
198 211 222 229 217 234 249 250 246 254 270 274 274 277 273 306 299 302 306 273 173 163 311 154 144 156 155 153 152 138 134 109 102 110 114 126 140 150 145 108 103 57 329 147 177 177 175 162 167 165 160 170 172 167 164 166 169 169 173 176 176 181 181 185 185 185 181 178 171 176 169 165 159 168 168 162 148 146 152 148 156 162 160 165 164 162 179 200 206 227 225 213 222 202 205 221 221
234 225 219 217 217 239 216 233 241 246 248 256 263 266 278 264 288 289 285 270 254 140 126 308 178 160 157 149 145 147 151 143 134 136 143 144 147 157 149 141 142 172 159 187 176 186 174 166 171 174 166 171 178 167 165 171 175 172 176 177 176 183 190 188 193 191 184 181 178 178 173 172 165 159 164 163 152 151 154 161 164 170 173 174 171 173 188 200 203 215 230 229 225 211 205 214 202
234 237 233 226 209 229 237 218 223 235 241 249 250 266 266 278 280 283 259 272 271 157 170 169 190 141 141 143 159 160 165 153 143 149 150 157 161 164 153 147 168 156 141 168 170 175 164 176 176 176 172 173 182 171 169 179 180 176 180 180 181 185 190 199 197 195 179 181 178 181 177 179 169 157 164 163 162 155 160 167 172 173 176 179 177 174 188 209 202 214 221 233 232 221 211 205 187
228 237 228 239 236 225 224 231 250 246 240 243 245 250 261 267 272 287 275 286 281 236 153 154 158 136 139 130 137 158 157 136 143 154 159 161 141 134 134 133 139 132 149 124 113 122 164 177 184 182 179 178 178 177 174 182 187 180 179 184 179 184 192 202 201 193 178 180 178 179 183 183 173 163 167 169 164 161 163 168 173 177 179 182 173 180 185 205 211 210 217 226 234 232 214 221 171
235 239 232 236 238 240 231 220 223 241 255 253 258 248 252 257 256 243 261 267 265 270 110 148 147 141 150 157 163 168 168 159 153 159 164 165 150 132 139 141 144 142 124 133 139 118 333 186 187 189 184 186 177 178 183 183 190 184 180 188 175 184 192 199 198 193 183 179 180 179 185 184 177 164 167 169 169 160 168 168 173 178 183 176 173 183 191 200 216 211 213 222 237 241 224 210 138
308 293 279 253 237 232 243 246 221 217 227 239 253 255 258 255 236 248 238 239 248 260 161 166 151 154 158 158 158 164 160 165 162 142 110 148 177 146 153 145 150 150 147 149 152 158 134 266 202 191 189 190 177 182 183 187 191 187 181 185 180 185 191 196 194 193 184 184 182 179 182 184 175 159 157 166 169 162 163 164 172 178 184 181 179 189 188 203 214 218 201 215 224 233 326 119 145
287 306 328 316 318 288 259 241 247 239 217 217 228 252 254 256 243 241 228 230 218 246 203 167 158 163 161 163 165 173 165 159 151 150 156 166 181 159 155 158 148 155 158 161 148 147 147 185 261 197 192 193 184 183 183 189 193 189 180 185 182 186 189 194 195 188 189 182 182 178 171 168 169 156 153 170 168 168 168 175 175 174 192 181 185 185 197 205 205 219 213 213 216 112 115 115 136
311 318 303 311 311 302 287 275 247 227 233 214 213 223 224 230 248 250 239 216 212 228 233 182 173 165 170 165 166 166 173 160 161 165 178 183 174 172 166 163 158 158 173 155 151 158 161 172 232 227 190 194 192 184 185 191 192 187 180 183 183 182 189 192 189 182 183 172 171 169 157 156 157 151 156 172 172 173 180 180 169 176 190 181 179 184 195 206 212 219 222 211 92 109 98 105 113
307 286 263 290 290 283 288 291 300 298 265 249 112 227 224 224 227 245 245 240 233 242 246 226 163 164 171 162 161 172 162 158 171 179 170 180 183 167 158 182 167 155 158 172 154 160 161 161 190 231 199 192 193 189 182 188 191 184 179 179 181 179 189 188 184 170 172 164 162 162 154 158 155 156 155 184 168 168 181 182 166 156 161 162 156 172 192 198 200 167 166 80 100 101 119 120 128
312 313 301 249 291 274 301 302 302 283 145 269 226 246 230 240 221 219 225 238 246 244 259 228 146 175 165 171 163 170 176 179 181 179 179 183 182 178 173 168 175 156 151 172 166 152 144 167 183 237 207 189 192 190 185 186 185 176 177 172 176 176 177 180 170 161 168 167 162 160 157 162 159 165 159 178 174 168 169 169 165 162 159 144 149 161 178 196 178 125 94 106 101 104 110 126 129
295 327 297 300 221 279 281 280 275 274 299 298 313 256 247 239 243 229 229 228 223 226 236 242 195 167 185 171 170 175 182 188 182 177 180 182 177 175 175 178 171 161 162 177 178 154 167 174 194 215 206 185 191 190 188 180 182 175 167 170 169 164 172 178 161 164 164 164 165 166 162 161 168 169 168 177 163 168 158 161 162 154 162 143 158 150 146 183 143 79 95 134 115 110 122 122 127
265 230 283 285 276 261 276 251 268 273 294 281 248 273 267 254 240 248 247 223 220 224 219 224 213 190 176 181 181 185 182 192 186 178 179 177 178 177 178 175 177 177 171 174 182 159 158 175 196 205 193 184 187 186 182 176 168 176 168 166 167 163 170 179 163 167 170 160 170 169 170 166 172 176 175 183 165 156 157 158 166 159 163 153 156 154 150 154 122 106 92 141 123 139 135 136 138
301 235 243 243 269 289 266 300 254 262 266 282 272 258 256 254 287 282 260 197 206 208 212 217 217 215 167 182 187 185 187 181 182 178 178 180 182 181 177 178 180 178 178 179 181 160 165 178 189 189 182 182 182 182 178 176 174 173 170 164 168 168 175 178 177 164 181 166 166 170 169 169 178 182 178 183 173 153 159 162 167 169 159 156 149 153 137 123 105 103 111 30 119 130 143 145 152
223 248 257 253 238 243 258 263 262 235 234 248 269 264 266 269 260 265 271 284 259 204 215 219 210 197 158 181 182 192 191 186 186 186 182 182 181 182 179 178 178 178 182 188 184 166 163 171 169 173 178 181 180 177 173 176 177 172 174 156 173 173 178 184 184 176 184 169 170 170 170 173 180 181 179 180 170 165 162 169 167 169 158 156 142 147 137 182 137 116 133 133 82 122 151 160 153
267 262 226 230 236 231 224 236 250 258 236 230 233 251 257 258 263 265 271 274 273 272 248 240 249 232 215 167 193 192 192 197 188 182 186 182 182 180 179 178 182 181 184 190 181 166 165 159 163 169 176 180 176 173 171 177 178 178 181 158 177 182 180 185 197 187 182 180 173 171 176 173 178 181 177 178 170 177 170 177 168 160 155 153 148 134 140 168 159 136 148 143 121 97 127 146 137
344 339 321 301 321 301 300 257 233 236 255 237 230 235 242 247 243 247 260 259 263 261 262 261 237 241 232 219 176 194 195 193 190 181 180 183 184 182 180 177 181 182 189 187 177 168 164 164 164 173 176 177 177 175 178 181 183 184 188 176 182 182 183 185 197 195 181 189 170 174 176 173 176 181 180 173 179 183 178 164 155 161 155 160 162 152 162 181 186 162 143 141 143 137 176 174 151
342 337 323 324 339 316 310 313 321 308 267 287 259 240 235 233 235 236 233 240 236 246 254 246 258 238 236 226 211 190 195 193 186 179 182 181 183 182 179 178 177 178 184 184 182 170 169 167 171 172 171 180 185 183 178 182 188 191 187 181 175 181 182 186 196 192 190 190 170 174 175 174 176 179 182 174 181 185 175 165 158 162 162 164 168 149 156 175 179 170 152 148 180 155 170 176 162
334 348 322 331 305 311 307 297 306 313 318 274 291 286 269 278 303 269 241 222 217 218 223 251 239 245 234 232 221 206 182 188 190 182 181 181 179 176 176 179 182 181 176 180 183 177 172 167 170 168 176 181 187 184 179 185 184 181 178 172 170 180 190 187 189 181 188 193 174 174 175 175 177 178 182 174 180 186 181 165 167 164 168 164 161 159 150 167 179 173 170 160 164 151 146 180 173
304 304 325 280 291 337 321 303 320 330 328 316 310 309 299 304 286 258 309 295 271 249 231 225 234 228 237 215 225 217 201 175 188 186 183 183 179 175 179 179 178 176 174 175 176 183 177 171 168 173 179 182 180 184 185 181 178 171 166 158 164 174 183 188 192 183 184 197 185 175 178 177 178 181 181 181 178 182 179 172 167 168 172 172 171 170 158 166 173 175 170 171 160 155 172 193 193
309 304 282 275 283 275 260 297 312 326 338 337 326 323 324 304 274 279 280 303 311 303 290 275 294 281 263 244 226 234 224 181 185 187 182 183 178 181 181 179 172 173 175 177 175 174 185 184 174 175 177 180 182 182 179 171 168 174 164 159 152 167 169 187 197 210 193 195 189 176 180 178 180 183 181 183 181 176 178 170 168 173 172 175 175 176 166 169 177 179 180 168 179 167 178 173 203
305 274 262 265 269 267 283 307 314 325 337 52 344 331 298 276 286 275 265 74 314 305 319 311 310 314 322 288 247 229 236 220 191 184 181 178 180 182 182 176 176 177 178 180 178 178 178 184 182 174 174 177 181 180 175 170 178 179 177 183 181 185 186 190 199 203 193 193 193 171 178 179 180 183 185 181 184 174 178 175 170 173 179 176 176 178 169 162 173 177 191 179 176 183 171 163 184
331 284 286 290 282 14 3 347 330 278 282 325 332 298 284 320 327 315 307 281 250 301 298 298 299 293 295 292 300 261 238 243 201 205 187 178 180 177 177 178 178 179 182 179 178 179 179 177 179 177 176 181 180 176 175 176 177 185 190 194 191 187 188 199 197 199 187 190 181 177 176 179 181 182 187 184 181 179 176 179 172 176 179 180 173 173 177 173 175 180 186 190 184 167 162 175 183
258 273 301 14 24 10 355 333 326 290 300 326 348 352 322 313 301 297 312 324 303 283 293 290 279 278 271 287 292 296 283 230 230 183 195 187 181 179 178 179 180 182 180 175 180 181 181 181 178 179 177 177 179 178 179 180 182 186 190 196 197 192 192 192 191 194 176 178 182 182 170 181 182 184 184 187 184 178 179 180 179 173 178 180 175 180 183 180 173 181 182 192 185 169 175 178 185
265 299 338 34 33 12 340 328 318 322 4 316 322 340 354 276 282 317 333 318 318 307 277 265 271 277 274 275 279 279 285 285 231 204 190 193 189 186 181 182 184 181 177 178 179 180 182 181 179 178 180 177 179 180 181 184 187 187 190 190 196 203 185 172 185 186 179 179 180 184 178 178 184 187 185 186 188 185 181 182 183 181 179 180 180 182 182 180 180 178 182 184 187 184 181 180 173
340 337 336 24 21 333 279 287 319 332 21 304 302 327 294 283 285 312 315 309 307 291 284 271 261 261 273 281 287 282 281 286 266 215 201 192 189 185 182 180 180 177 180 180 179 177 180 180 179 179 181 179 179 182 185 185 188 187 188 193 198 196 185 171 173 188 186 181 183 185 186 181 184 186 190 189 190 191 185 182 184 188 184 181 179 182 182 183 185 182 182 185 183 185 191 181 183
322 338 338 352 19 291 300 262 233 354 318 269 272 297 295 292 286 259 297 253 280 311 315 319 308 288 278 278 274 276 280 274 289 225 212 198 191 184 181 181 180 178 178 177 178 181 180 178 179 181 181 180 181 184 185 185 187 189 192 195 197 192 186 175 171 191 188 187 190 187 189 189 184 188 191 196 195 193 189 186 186 188 188 179 180 179 186 185 186 184 181 184 182 181 189 191 191
313 358 321 352 327 342 333 284 174 158 260 254 264 267 270 271 307 307 286 292 292 292 295 299 279 261 289 291 285 276 267 267 269 258 221 201 192 189 186 189 185 180 176 176 181 179 179 179 179 180 182 183 184 185 187 188 187 193 195 195 195 191 182 183 184 190 194 194 194 189 187 183 190 191 193 197 200 196 189 189 187 187 189 186 183 182 184 184 182 179 179 181 186 182 181 185 185
17 352 355 50 291 28 328 360 5 215 221 235 226 46 346 291 245 270 294 291 292 287 286 279 303 301 274 275 276 269 264 261 260 252 225 185 207 204 197 195 188 178 176 177 175 177 180 182 180 181 184 185 186 185 187 188 189 195 196 196 197 189 184 188 189 189 196 196 193 188 185 190 186 192 198 198 201 198 190 188 188 188 188 191 187 182 184 180 178 178 178 184 184 182 178 179 181
326 275 356 46 12 7 281 281 239 304 279 320 338 350 277 222 262 259 261 268 275 279 281 283 271 276 286 289 289 278 264 258 262 248 233 178 187 195 195 191 193 189 186 180 175 173 178 183 184 186 187 186 186 187 189 189 191 195 199 198 194 187 186 187 191 192 193 198 191 193 191 190 191 196 194 199 195 196 197 192 190 189 182 186 189 187 184 180 177 177 178 183 188 187 179 181 184
256 298 265 174 167 148 279 346 295 276 281 306 320 26 231 9 243 315 300 284 288 297 295 293 292 289 277 272 270 269 255 278 273 273 265 210 179 177 188 189 189 189 184 183 182 179 176 179 182 188 189 189 188 190 189 192 193 195 200 200 193 189 185 187 193 196 192 194 196 193 193 192 196 198 197 195 187 196 197 190 192 190 182 182 187 189 184 178 176 175 178 183 186 184 184 182 186
359 321 33 69 227 125 181 198 237 299 312 318 309 199 285 282 287 295 287 289 290 284 288 290 288 288 285 274 279 284 286 280 269 267 265 253 175 186 180 186 196 200 191 184 180 180 179 181 184 187 186 187 190 190 193 194 193 195 199 197 194 189 187 187 193 198 202 196 197 194 193 194 199 196 196 190 195 194 196 192 190 193 186 181 186 190 189 178 176 174 178 179 185 185 182 184 187
269 343 311 259 63 137 188 335 242 220 330 257 243 293 291 285 284 269 266 269 274 276 274 276 279 286 302 302 297 291 291 291 289 288 317 353 59 349 304 210 183 186 191 187 193 186 182 182 185 189 190 190 190 191 192 192 193 195 198 197 192 190 188 187 191 200 203 199 194 196 195 196 192 192 193 192 194 196 195 194 191 191 190 185 182 190 190 183 177 175 177 180 186 187 182 187 183
18 330 270 351 353 12 54 236 355 315 255 269 289 282 292 313 291 278 301 291 282 282 274 282 281 287 295 295 297 290 278 277 276 271 243 297 103 146 185 214 211 217 198 191 192 190 189 186 186 187 191 192 192 192 192 191 192 195 196 194 191 189 189 193 196 202 204 201 196 196 195 191 195 195 190 190 192 195 197 195 192 191 191 190 186 185 190 184 178 181 180 182 185 183 185 184 186
201 233 321 12 4 347 326 82 312 312 287 282 262 295 281 277 265 293 286 295 304 311 314 322 318 319 319 321 321 342 334 310 293 280 273 238 235 235 179 185 206 227 233 232 203 187 189 192 189 187 189 191 191 190 191 193 194 194 193 191 188 188 191 195 201 202 203 203 201 197 196 198 194 189 192 189 190 194 196 198 195 192 190 193 190 187 187 187 180 182 183 183 183 183 185 187 188
337 34 322 215 225 190 122 173 198 151 277 317 272 255 263 259 275 308 308 309 327 329 326 322 320 326 330 336 347 351 342 334 325 307 282 271 269 250 271 247 213 194 204 202 215 216 196 190 192 194 192 190 189 190 190 191 192 195 195 191 190 190 191 195 198 201 201 204 202 201 199 194 194 191 193 191 191 194 196 197 197 193 192 192 192 190 185 188 183 185 183 185 186 183 187 189 190
329 1 327 342 301 224 170 159 172 174 218 241 296 286 242 244 257 287 301 314 313 316 316 319 322 323 322 331 347 351 345 343 331 340 336 326 333 350 14 350 332 206 156 138 42 266 243 215 197 190 189 189 189 190 190 192 190 192 191 191 193 192 193 194 198 201 204 207 206 204 202 199 189 192 190 191 196 197 196 197 196 196 194 193 193 191 188 187 188 188 188 188 186 187 188 191 188
261 282 55 25 29 8 7 307 319 353 337 285 305 287 258 238 269 272 287 291 299 307 314 313 311 312 312 323 329 339 342 334 323 326 323 346 341 24 18 17 12 38 40 236 179 179 269 313 331 256 198 192 188 189 189 190 190 192 192 192 193 196 198 197 199 199 203 204 205 204 203 196 193 193 189 192 196 197 195 195 198 200 197 195 194 193 189 187 191 190 191 190 190 190 190 188 186